Details From KSHN - SANDERSON FLD
To KHQM - BOWERMAN
Flight Number -
Tags generated
Created
Modified
Stats Distance 36 nm / 66 km
Max Altitude 4,200 ft / 1,280 m
Waypoints 3
Social Downloads 5
Likes 0
Share VATSIM

Download

Looking for another format? Having issues loading an existing format? Contact us
Advertisement - Login to hide

Notes

Basic altitude profile: - Ascent Rate: 2500ft/min - Ascent Speed: 250kts - Cruise Altitude: 35000ft - Cruise Speed: 420kts - Descent Rate: 1500ft/min - Descent Speed: 250kts Options: - Use NATs: yes - Use PACOTS: yes - Use low airways: yes - Use high airways: yes

Route

KSHN ELMAA KHQM

ID Type Via Altitude Latitude Longitude Leg Dist Tot Dist Heading (true) Name
O KSHN APT - 0 ft / 0 m 47.23356˚ -123.14754˚ - 0 nm - SANDERSON FLD
ELMAA FIX - 4,200 ft / 1,280 m 47.14804˚ -123.40955˚ 11 nm 11 nm 244° / 244° -
O KHQM APT - 0 ft / 0 m 46.97120˚ -123.93656˚ 24 nm 35 nm 244° / 244° BOWERMAN

Altitude Profile

Advertisement - Login to hide

KSHN

Details ICAO KSHN
Name SANDERSON FLD
Region United States
Timezone America/Los_Angeles (UTC-7.0)
Stats Elevation 273 ft / 83 m (AMSL)
Location 47.233559° -123.147544°
Runways 1
Magnetic Variation 15.716° E

METAR

KSHN 251810Z AUTO VRB04KT 10SM OVC016 14/09 A3002 RMK AO2 T01390094

Decode

TAF

Not found

Departure Runways

ID Width Length Bearing (true) Bearing (mag) Surface Threshold Offset Overrun Length
05 100 ft / 30 m 4,994 ft / 1,522 m 67.84° 52.12° Asphalt 0 ft / 0 m 0 ft / 0 m
23 100 ft / 30 m 4,994 ft / 1,522 m 247.85° 232.13° Asphalt 0 ft / 0 m 0 ft / 0 m

KHQM

Details ICAO KHQM
Name BOWERMAN
Region United States
Timezone America/Los_Angeles (UTC-7.0)
Stats Elevation 18 ft / 5 m (AMSL)
Location 46.971196° -123.936564°
Runways 1
Magnetic Variation 15.778° E

METAR

KHQM 251753Z AUTO 27012G16KT 10SM CLR 15/07 A3006 RMK AO2 SLP184 T01500067 10150 20089 58004

Decode

TAF

KHQM 251749Z 2518/2618 27011KT P6SM FEW020 FM252000 26014KT P6SM SCT200 FM260800 24010KT 4SM -DZ BR SCT009 OVC014

Decode

Destination Runways

ID Width Length Bearing (true) Bearing (mag) Surface Threshold Offset Overrun Length
06 151 ft / 46 m 4,987 ft / 1,520 m 79.79° 64.01° Asphalt 0 ft / 0 m 0 ft / 0 m
24 151 ft / 46 m 4,987 ft / 1,520 m 259.81° 244.03° Asphalt 0 ft / 0 m 0 ft / 0 m

Approach Navaids

Runway Type Ident Frequency Range Bearing (true) Bearing (mag) Slope Elevation
24 Localiser IHQM 108.70 MHz 18 nm / 33 km 259.79° 244.02° - 18 ft / 5 m (AMSL)
24 Glidescope IHQM 108.70 MHz 10 nm / 19 km 259.80° 244.02° 3.00° 18 ft / 5 m (AMSL)
24 DME IHQM 108.70 MHz 18 nm / 33 km - - - 18 ft / 5 m (AMSL)